Date String (YYYY-MM-DD hh:mm:ss) UTC,Instrument flags,absolute air pressure of the measurement (hPa),sample flow rate (lpm),inlet stack bypass flow (lpm),air temperature of the measurement (°C),ambient temperature measured by the external sensor (°C),aerosol sample conditioner tube jacket temperature (°C),OPC LED temperature (°C),internal box temperature (°C),relative humidity of the measurement (%),span deviation,mass concentration of particles derived from Lorenz-Mie calculation of OPC scattering (μg/m³),mass concentration of particles derived from Lorenz-Mie calculation of OPC scattering (μg/m³),mass concentration of particles derived from Lorenz-Mie calculation of OPC scattering (μg/m³)
DateTimeUTC,F1_M11,P_M11,Q1_M11,Q2_M11,T1_M11,T2_M11,T3_M11,T4_M11,T5_M11,U1_M11,ZSPAN_M11,X0_M11,X2_M11,X1_M11
2023-10-26 20:00:00,SystemResetWarning,0822.8,4.99,000.00,028.6,027.1,000.0,037.1,030.1,21.6,-000.9,0015.08,0009.80,0009.09
2023-10-26 20:01:00,SystemResetWarning,0823.1,5.00,000.00,028.6,027.1,000.0,037.0,030.1,21.6,-001.4,0015.18,0009.85,0009.13
2023-10-26 20:02:00,SystemResetWarning,0822.7,4.99,000.00,028.5,027.1,000.0,037.0,030.1,21.7,-001.4,0015.24,0009.88,0009.15
2023-10-26 20:03:00,SystemResetWarning,0822.6,5.00,000.00,028.5,027.1,000.0,037.0,030.1,21.7,-001.6,0015.26,0009.88,0009.16
2023-10-26 20:04:00,SystemResetWarning,0822.6,4.99,000.00,028.6,027.1,000.0,037.0,030.1,21.7,-001.7,0015.70,0009.90,0009.19
2023-10-26 20:05:00,SystemResetWarning,0822.7,5.00,000.00,028.6,027.1,000.0,037.0,030.1,21.7,-001.7,0015.72,0009.90,0009.19
2023-10-26 20:06:00,SystemResetWarning,0822.9,5.01,000.00,028.6,027.1,000.0,037.0,030.1,21.8,-001.7,0015.78,0009.92,0009.19
2023-10-26 20:07:00,SystemResetWarning,0822.7,5.00,000.00,028.6,027.1,000.0,037.0,030.1,21.8,-001.8,0015.69,0009.93,0009.17
2023-10-26 20:08:00,SystemResetWarning,0822.6,5.01,000.00,028.6,027.1,000.0,037.0,030.1,21.9,-002.0,0015.52,0009.92,0009.16
2023-10-26 20:09:00,SystemResetWarning,0822.8,5.00,000.00,028.6,027.1,000.0,037.0,030.1,21.9,-002.0,0016.01,0009.87,0009.15
2023-10-26 20:10:00,SystemResetWarning,0822.7,5.00,000.00,028.6,027.1,000.0,037.0,030.1,21.9,-002.2,0015.83,0009.86,0009.15
2023-10-26 20:11:00,SystemResetWarning,0822.8,4.99,000.00,028.6,027.1,000.0,037.0,030.1,21.9,-002.2,0015.79,0009.86,0009.16
2023-10-26 20:12:00,SystemResetWarning,0822.9,5.00,000.00,028.6,027.1,000.0,037.0,030.1,21.9,-002.0,0015.63,0009.87,0009.16
2023-10-26 20:13:00,SystemResetWarning,0822.7,4.99,000.00,028.6,027.1,000.0,037.0,030.1,21.9,-001.9,0015.19,0009.85,0009.15
2023-10-26 20:14:00,SystemResetWarning,0822.8,5.00,000.00,028.6,027.1,000.0,037.0,030.1,22.0,-001.7,0015.45,0009.83,0009.16
2023-10-26 20:15:00,SystemResetWarning,0823.1,5.00,000.00,028.6,027.1,000.0,037.0,030.1,22.4,-001.6,0015.45,0009.84,0009.17
2023-10-26 20:16:00,SystemResetWarning,0823.0,5.00,000.00,028.6,027.1,000.0,037.0,030.1,22.2,-001.6,0015.36,0009.87,0009.20
2023-10-26 20:17:00,SystemResetWarning,0823.0,5.00,000.00,028.6,027.1,000.0,037.0,030.1,22.1,-001.6,0015.38,0009.88,0009.22
2023-10-26 20:18:00,SystemResetWarning,0823.0,5.00,000.00,028.5,027.0,000.0,037.0,030.1,22.0,-001.6,0015.46,0009.90,0009.25
2023-10-26 20:19:00,SystemResetWarning,0823.0,5.00,000.00,028.5,027.0,000.0,037.0,030.0,22.0,-001.6,0015.83,0009.96,0009.26
2023-10-26 20:20:00,SystemResetWarning,0823.0,5.01,000.00,028.6,027.0,000.0,037.0,030.0,22.0,-001.4,0015.30,0009.95,0009.24
2023-10-26 20:21:00,SystemResetWarning,0823.1,5.00,000.00,028.6,027.0,000.0,037.0,030.1,22.0,-001.0,0015.08,0009.89,0009.19
2023-10-26 20:22:00,SystemResetWarning,0822.9,5.01,000.00,028.5,027.1,000.0,037.0,030.1,22.0,-001.1,0015.02,0009.87,0009.14
2023-10-26 20:23:00,SystemResetWarning,0823.1,5.00,000.00,028.5,027.1,000.0,037.0,030.1,22.0,-001.1,0015.11,0009.82,0009.09
2023-10-26 20:24:00,SystemResetWarning,0822.7,5.00,000.00,028.5,027.1,000.0,037.0,030.1,22.0,-001.0,0015.01,0009.79,0009.07
2023-10-26 20:25:00,SystemResetWarning,0823.1,4.99,000.00,028.5,027.1,000.0,037.0,030.1,22.0,-000.8,0014.83,0009.75,0009.04
2023-10-26 20:26:00,SystemResetWarning,0823.1,5.00,000.00,028.5,027.1,000.0,037.0,030.1,22.0,-000.8,0014.46,0009.71,0009.02
2023-10-26 20:27:00,SystemResetWarning,0823.1,5.00,000.00,028.5,027.0,000.0,037.0,030.1,22.0,-000.9,0014.48,0009.72,0008.98
2023-10-26 20:28:00,SystemResetWarning,0823.0,5.00,000.00,028.5,027.0,000.0,037.0,030.1,22.0,-001.1,0014.49,0009.72,0008.96
2023-10-26 20:29:00,SystemResetWarning,0823.1,5.01,000.00,028.5,027.0,000.0,037.0,030.1,22.0,-001.2,0014.67,0009.70,0008.92
2023-10-26 20:30:00,SystemResetWarning,0823.1,5.01,000.00,028.6,027.1,000.0,037.0,030.1,22.0,-001.1,0014.27,0009.60,0008.87
2023-10-26 20:31:00,SystemResetWarning,0823.1,4.99,000.00,028.6,027.1,000.0,037.0,030.1,22.1,-001.4,0014.34,0009.52,0008.80
2023-10-26 20:32:00,SystemResetWarning,0823.1,4.99,000.00,028.6,027.1,000.0,037.0,030.1,22.1,-001.7,0014.53,0009.48,0008.78
2023-10-26 20:33:00,SystemResetWarning,0823.0,4.99,000.00,028.6,027.2,000.0,037.0,030.1,22.2,-001.7,0014.55,0009.47,0008.77
2023-10-26 20:34:00,SystemResetWarning,0823.0,5.00,000.00,028.6,027.1,000.0,037.0,030.1,22.1,-001.7,0014.48,0009.46,0008.77
2023-10-26 20:35:00,SystemResetWarning,0823.0,5.01,000.00,028.6,027.1,000.0,037.0,030.1,22.1,-001.7,0014.52,0009.46,0008.79
2023-10-26 20:36:00,SystemResetWarning,0822.9,5.01,000.00,028.5,027.1,000.0,037.0,030.1,22.1,-001.8,0015.69,0009.47,0008.78
2023-10-26 20:37:00,SystemResetWarning,0823.1,5.01,000.00,028.5,027.1,000.0,037.0,030.1,22.1,-001.9,0015.72,0009.55,0008.82
2023-10-26 20:38:00,SystemResetWarning,0822.9,5.00,000.00,028.5,027.1,000.0,037.0,030.1,22.1,-001.8,0015.81,0009.56,0008.83
2023-10-26 20:39:00,SystemResetWarning,0822.8,4.99,000.00,028.6,027.1,000.0,037.0,030.1,22.1,-001.4,0015.69,0009.46,0008.76
2023-10-26 20:40:00,SystemResetWarning,0822.9,5.00,000.00,028.5,027.1,000.0,037.0,030.1,22.1,-001.0,0015.48,0009.39,0008.70
2023-10-26 20:41:00,SystemResetWarning,0823.0,5.00,000.00,028.6,027.1,000.0,037.0,030.1,22.1,-000.8,0015.23,0009.33,0008.66
2023-10-26 20:42:00,SystemResetWarning,0822.9,5.01,000.00,028.6,027.1,000.0,037.0,030.1,22.1,-000.6,0015.06,0009.28,0008.63
2023-10-26 20:43:00,SystemResetWarning,0822.8,5.01,000.00,028.6,027.1,000.0,037.0,030.1,22.1,-000.5,0014.65,0009.21,0008.55
2023-10-26 20:44:00,SystemResetWarning,0823.1,5.01,000.00,028.6,027.1,000.0,037.0,030.1,22.1,-000.7,0014.46,0009.12,0008.48
2023-10-26 20:45:00,SystemResetWarning,0823.1,5.00,000.00,028.6,027.0,000.0,037.0,030.1,22.0,-000.6,0014.24,0009.03,0008.41
2023-10-26 20:46:00,SystemResetWarning,0823.0,5.00,000.00,028.5,027.0,000.0,037.0,030.1,22.1,-000.6,0014.09,0008.93,0008.31
2023-10-26 20:47:00,SystemResetWarning,0822.9,5.00,000.00,028.6,027.0,000.0,037.0,030.1,22.0,-000.6,0012.84,0008.83,0008.23
2023-10-26 20:48:00,SystemResetWarning,0822.9,5.00,000.00,028.6,027.1,000.0,037.0,030.1,22.0,-000.7,0012.50,0008.66,0008.11
2023-10-26 20:49:00,SystemResetWarning,0823.0,5.00,000.00,028.6,027.1,000.0,037.0,030.1,22.0,-000.6,0012.22,0008.51,0007.98
2023-10-26 20:50:00,SystemResetWarning,0823.0,4.99,000.00,028.6,027.1,000.0,037.0,030.2,21.9,-000.8,0011.99,0008.40,0007.87
2023-10-26 20:51:00,SystemResetWarning,0823.1,5.00,000.00,028.6,027.2,000.0,037.0,030.2,21.9,-001.0,0011.92,0008.27,0007.75
2023-10-26 20:52:00,SystemResetWarning,0823.1,4.99,000.00,028.6,027.2,000.0,037.0,030.2,21.9,-001.2,0011.71,0008.11,0007.62
2023-10-26 20:53:00,SystemResetWarning,0823.1,5.00,000.00,028.6,027.2,000.0,037.0,030.2,21.9,-001.4,0011.52,0007.97,0007.49
2023-10-26 20:54:00,SystemResetWarning,0823.1,5.00,000.00,028.6,027.2,000.0,037.0,030.2,21.8,-001.3,0011.44,0007.89,0007.41
2023-10-26 20:55:00,SystemResetWarning,0823.1,5.01,000.00,028.6,027.2,000.0,037.0,030.2,21.8,-001.4,0011.39,0007.82,0007.34
2023-10-26 20:56:00,SystemResetWarning,0823.1,5.00,000.00,028.6,027.3,000.0,037.0,030.2,21.8,-001.6,0011.48,0007.75,0007.26
2023-10-26 20:57:00,SystemResetWarning,0823.1,5.00,000.00,028.6,027.3,000.0,037.0,030.2,21.8,-001.7,0011.42,0007.66,0007.18
2023-10-26 20:58:00,SystemResetWarning,0823.1,4.99,000.00,028.6,027.3,000.0,037.0,030.2,21.8,-001.5,0011.30,0007.62,0007.15
2023-10-26 20:59:00,SystemResetWarning,0823.1,5.00,000.00,028.6,027.3,000.0,037.0,030.2,21.8,-001.4,0011.35,0007.57,0007.10
